Weather History for KMAN - April, 2014

Change the Weather History Date:

Sunday, April 27, 2014

  Actual Average (KBOI) Record (KBOI)
Temperature  
Mean Temperature 42 °F 54 °F  
Max Temperature 53 °F 66 °F 92 °F (1987)
Min Temperature 32 °F 41 °F 26 °F (1966)
Degree Days  
Heating Degree Days 22 12  
Month to date heating degree days 396  
Since 1 July heating degree days 5191  
Cooling Degree Days 0 0  
Month to date cooling degree days 0  
Year to date cooling degree days 0  
Moisture  
Dew Point 35 °F    
Average Humidity 76    
Maximum Humidity 100    
Minimum Humidity 33    
Precipitation  
Precipitation 0.21 in 0.04 in 0.70 in (1990)
Month to date precipitation 1.10  
Year to date precipitation 4.72  
Snow  
Snow 0.00 in 0.00 in 0.20 in (1899)
Month to date snowfall 0.3  
Since 1 July snowfall 19.2  
Snow Depth -    
Sea Level Pressure  
Sea Level Pressure 29.86 in    
Wind  
Wind Speed 5 mph (NNE)    
Max Wind Speed 26 mph    
Max Gust Speed 41 mph    
Visibility 9 miles    
Events      
T = Trace of Precipitation, MM = Missing Value Source: NWS Daily Summary

Daily Weather History Graph

Daily Weather History Graph

Search for Another Location

Airport or City:

Trip Planner

Search our weather history database for the weather conditions in past years. The results will help you decide how hot, cold, wet, or windy it might be!

Date:

Astronomy

Apr. 27, 2014 Rise Set
Actual Time 6:44 AM MDT 8:43 PM MDT
Civil Twilight 6:13 AM MDT 9:14 PM MDT
Nautical Twilight 5:35 AM MDT 9:53 PM MDT
Astronomical Twilight 4:54 AM MDT 10:34 PM MDT
Moon 5:51 AM MDT (4/27) 7:20 PM MDT (4/27)
Length of Visible Light 15h 01m
Length of Day
13h 59m
Waning Crescent, 3% of the Moon is Illuminated
Apr 27
Waning Crescent
Apr 29
New
May 6
First Quarter
May 14
Full
May 21
Last Quarter

Hourly Weather History & Observations

Time (MDT) Temp. Windchill Dew Point Humidity Pressure Visibility Wind Dir Wind Speed Gust Speed Precip Events Conditions
12:15 AM 37.4 °F 34.9 °F 33.8 °F 87% 29.77 in 10.0 mi SE 3.5 mph - N/A   Clear
12:35 AM 35.6 °F - 32.0 °F 87% 29.77 in 10.0 mi Calm Calm - N/A   Clear
12:55 AM 37.4 °F - 32.0 °F 81% 29.77 in 10.0 mi Calm Calm - N/A   Clear
1:15 AM 33.8 °F 30.8 °F 32.0 °F 93% 29.78 in 10.0 mi SE 3.5 mph - N/A   Clear
1:35 AM 35.6 °F - 32.0 °F 87% 29.78 in 10.0 mi Calm Calm - N/A   Clear
1:55 AM 35.6 °F - 32.0 °F 87% 29.77 in 10.0 mi Calm Calm - N/A   Unknown
2:15 AM 32.0 °F 28.7 °F 32.0 °F 100% 29.77 in 10.0 mi ESE 3.5 mph - N/A   Clear
2:35 AM 35.6 °F - 32.0 °F 87% 29.77 in 10.0 mi Calm Calm - N/A   Clear
2:55 AM 32.0 °F - 32.0 °F 100% 29.77 in 10.0 mi Calm Calm - N/A   Clear
3:15 AM 32.0 °F - 32.0 °F 100% 29.77 in 10.0 mi Calm Calm - N/A   Mostly Cloudy
3:35 AM 32.0 °F - 32.0 °F 100% 29.78 in 10.0 mi Calm Calm - N/A   Overcast
3:55 AM 32.0 °F - 32.0 °F 100% 29.78 in 10.0 mi Calm Calm - N/A   Overcast
4:15 AM 33.8 °F 28.6 °F 32.0 °F 93% 29.78 in 10.0 mi ESE 5.8 mph - N/A   Overcast
4:35 AM 35.6 °F - 32.0 °F 87% 29.79 in 10.0 mi Calm Calm - N/A   Overcast
4:55 AM 35.6 °F 32.8 °F 35.6 °F 100% 29.79 in 10.0 mi SE 3.5 mph - N/A   Overcast
5:15 AM 35.6 °F 32.8 °F 35.6 °F 100% 29.80 in 10.0 mi SE 3.5 mph - N/A   Overcast
5:35 AM 35.6 °F 32.8 °F 33.8 °F 93% 29.81 in 10.0 mi SSW 3.5 mph - N/A   Unknown
5:55 AM 35.6 °F 29.2 °F 35.6 °F 100% 29.82 in 10.0 mi WSW 8.1 mph - N/A   Overcast
6:15 AM 41.0 °F 33.5 °F 37.4 °F 87% 29.82 in 5.0 mi WNW 13.8 mph 19.6 mph N/A   Overcast
6:55 AM 41.0 °F - 39.2 °F 93% 29.82 in 9.0 mi Calm Calm - 0.02 in   Mostly Cloudy
7:35 AM 41.0 °F 38.0 °F 41.0 °F 100% 29.82 in 10.0 mi ESE 4.6 mph - N/A   Mostly Cloudy
7:55 AM 41.0 °F 39.0 °F 41.0 °F 100% 29.83 in 10.0 mi East 3.5 mph - N/A   Mostly Cloudy
8:35 AM 42.8 °F 39.3 °F 42.8 °F 100% 29.84 in 10.0 mi SE 5.8 mph - N/A   Scattered Clouds
8:55 AM 44.6 °F 41.4 °F 44.6 °F 100% 29.84 in 10.0 mi SE 5.8 mph - N/A   Scattered Clouds
9:15 AM 44.6 °F 40.7 °F 44.6 °F 100% 29.84 in 10.0 mi ESE 6.9 mph - N/A   Mostly Cloudy
9:35 AM 46.4 °F 41.9 °F 41.0 °F 81% 29.83 in 10.0 mi ESE 9.2 mph - N/A   Partly Cloudy
10:15 AM 46.4 °F 42.9 °F 41.0 °F 81% 29.84 in 10.0 mi SE 6.9 mph - N/A   Clear
10:35 AM 46.4 °F 44.3 °F 39.2 °F 76% 29.84 in 10.0 mi SSE 4.6 mph - N/A   Clear
10:55 AM 48.2 °F - 39.2 °F 71% 29.84 in 10.0 mi Calm Calm - N/A   Scattered Clouds
11:15 AM 46.4 °F 39.8 °F 41.0 °F 81% 29.86 in 4.0 mi NNW 16.1 mph 21.9 mph 0.02 in   Mostly Cloudy
11:35 AM 39.2 °F 32.5 °F 39.2 °F 100% 29.88 in 1.2 mi WNW 10.4 mph 16.1 mph 0.14 in   Mostly Cloudy
11:55 AM 41.0 °F 39.0 °F 41.0 °F 100% 29.85 in 10.0 mi SE 3.5 mph - 0.16 in   Scattered Clouds
12:15 PM 44.6 °F 43.1 °F 44.6 °F 100% 29.85 in 10.0 mi SSW 3.5 mph - N/A   Partly Cloudy
12:35 PM 48.2 °F - 42.8 °F 82% 29.85 in 10.0 mi Calm Calm - N/A   Clear
1:15 PM 50.0 °F - 41.0 °F 71% 29.85 in 10.0 mi Calm Calm - N/A   Partly Cloudy
1:35 PM 48.2 °F - 44.6 °F 87% 29.84 in 5.0 mi ENE 9.2 mph - 0.02 in   Mostly Cloudy
1:55 PM 50.0 °F - 44.6 °F 82% 29.86 in 10.0 mi NNE 11.5 mph - 0.02 in   Partly Cloudy
2:35 PM 50.0 °F - 41.0 °F 71% 29.86 in 10.0 mi North 11.5 mph 17.3 mph 0.01 in   Clear
2:55 PM 50.0 °F - 35.6 °F 58% 29.86 in 10.0 mi North 10.4 mph - 0.01 in   Clear
3:15 PM 51.8 °F - 33.8 °F 50% 29.86 in 10.0 mi North 10.4 mph - N/A   Partly Cloudy
3:35 PM 53.6 °F - 32.0 °F 44% 29.86 in 10.0 mi NNW 11.5 mph 20.7 mph N/A   Partly Cloudy
3:55 PM 53.6 °F - 32.0 °F 44% 29.86 in 10.0 mi NNW 11.5 mph 18.4 mph N/A   Scattered Clouds
4:15 PM 53.6 °F - 28.4 °F 38% 29.86 in 10.0 mi North 6.9 mph - N/A   Partly Cloudy
4:35 PM 53.6 °F - 24.8 °F 33% 29.86 in 10.0 mi NNW 13.8 mph 20.7 mph N/A   Partly Cloudy
4:55 PM 53.6 °F - 26.6 °F 35% 29.86 in 10.0 mi North 13.8 mph 23.0 mph N/A   Partly Cloudy
5:15 PM 53.6 °F - 28.4 °F 38% 29.86 in 10.0 mi North 10.4 mph 17.3 mph N/A   Clear
5:35 PM 53.6 °F - 26.6 °F 35% 29.86 in 10.0 mi North 10.4 mph 19.6 mph N/A   Clear
5:55 PM 51.8 °F - 26.6 °F 38% 29.86 in 10.0 mi North 11.5 mph - N/A   Clear
6:15 PM 53.6 °F - 26.6 °F 35% 29.87 in 10.0 mi North 12.7 mph 17.3 mph N/A   Clear
6:35 PM 53.6 °F - 24.8 °F 33% 29.87 in 10.0 mi North 12.7 mph 19.6 mph N/A   Clear
6:55 PM 51.8 °F - 26.6 °F 38% 29.87 in 10.0 mi North 9.2 mph - N/A   Clear
7:15 PM 51.8 °F - 26.6 °F 38% 29.88 in 10.0 mi North 9.2 mph - N/A   Clear
7:35 PM 50.0 °F - 26.6 °F 40% 29.88 in 10.0 mi North 8.1 mph - N/A   Clear
7:55 PM 50.0 °F - 24.8 °F 37% 29.89 in 10.0 mi North 9.2 mph - N/A   Mostly Cloudy
8:15 PM 48.2 °F - 28.4 °F 46% 29.91 in 7.0 mi North 4.6 mph 25.3 mph N/A   Overcast
8:35 PM 46.4 °F 41.5 °F 32.0 °F 57% 29.93 in 5.0 mi West 10.4 mph 16.1 mph N/A   Mostly Cloudy
8:55 PM 46.4 °F 39.8 °F 32.0 °F 57% 29.94 in 10.0 mi SW 16.1 mph 21.9 mph N/A   Mostly Cloudy
9:15 PM 44.6 °F 36.4 °F 33.8 °F 66% 29.98 in 8.0 mi WSW 20.7 mph 26.5 mph N/A   Overcast
9:35 PM 42.8 °F 32.9 °F 37.4 °F 81% 30.01 in 8.0 mi WNW 26.5 mph 41.4 mph N/A   Overcast
9:55 PM 41.0 °F 33.9 °F 35.6 °F 81% 30.01 in 10.0 mi NNW 12.7 mph 19.6 mph N/A   Overcast
10:15 PM 41.0 °F 35.2 °F 37.4 °F 87% 30.02 in 10.0 mi North 9.2 mph - N/A   Overcast
10:35 PM 41.0 °F 35.8 °F 37.4 °F 87% 30.03 in 10.0 mi North 8.1 mph - N/A   Overcast
11:15 PM 39.2 °F 37.0 °F 39.2 °F 100% 30.03 in 10.0 mi SW 3.5 mph - N/A   Clear
11:35 PM 37.4 °F - 37.4 °F 100% 30.03 in 10.0 mi Calm Calm - N/A   Scattered Clouds
11:55 PM 37.4 °F - 37.4 °F 100% 30.04 in 10.0 mi Calm Calm - N/A   Scattered Clouds